This is the latest recevied weather packets stored in our database for station/object LU5DTF-1. If no packets are shown the sender has not sent any weather packets the latest 10 day(s).
| Time | Temp. | Humidity | Pressure | Rain* | Wind** | Luminosity | Snow |
|---|---|---|---|---|---|---|---|
| 1778130300 | 16.11° C | 94% | 997 hPa | 0 mm | - | - | - |
| 1778130000 | 16.11° C | 95% | 996.8 hPa | 0 mm | - | - | - |
| 1778129700 | 16.11° C | 95% | 996.4 hPa | 0 mm | - | - | - |
| 1778129400 | 16.67° C | 95% | 996.5 hPa | 0 mm | - | - | - |
| 1778129100 | 16.11° C | 95% | 997.1 hPa | 0 mm | - | - | - |
| 1778128800 | 16.11° C | 95% | 996.6 hPa | 0 mm | - | - | - |
| 1778128500 | 16.11° C | 94% | 996.8 hPa | 0 mm | - | - | - |
| 1778128200 | 16.11° C | 94% | 996 hPa | 0 mm | - | - | - |
| 1778127900 | 16.11° C | 94% | 996.7 hPa | 0 mm | - | - | - |
| 1778127600 | 16.11° C | 95% | 996.6 hPa | 0 mm | - | - | - |
| 1778127300 | 16.11° C | 95% | 996.5 hPa | 0 mm | - | - | - |
| 1778127000 | 16.11° C | 95% | 996.5 hPa | 0 mm | - | - | - |
| 1778126699 | 16.11° C | 95% | 996.2 hPa | 0 mm | - | - | - |
| 1778126400 | 16.11° C | 95% | 995.7 hPa | 0 mm | - | - | - |
| 1778126100 | 16.11° C | 95% | 996 hPa | 0 mm | - | - | - |
| 1778125799 | 16.11° C | 95% | 995.8 hPa | 0 mm | - | - | - |
| 1778125499 | 16.11° C | 95% | 995.8 hPa | 0 mm | - | - | - |
| 1778125200 | 16.11° C | 95% | 995.9 hPa | 0.25 mm | - | - | - |
| 1778124899 | 15.56° C | 95% | 996.5 hPa | 0.25 mm | - | - | - |
| 1778124600 | 15.56° C | 95% | 996.5 hPa | 0.51 mm | - | - | - |
| 1778124299 | 15.56° C | 95% | 996.6 hPa | 0.51 mm | - | - | - |
| 1778123999 | 15.56° C | 95% | 996.3 hPa | 1.27 mm | - | - | - |
| 1778123700 | 15.56° C | 95% | 996.4 hPa | 2.79 mm | - | - | - |
| 1778123400 | 15.56° C | 95% | 995.4 hPa | 3.3 mm | - | - | - |
| 1778122501 | 15.56° C | 95% | 998.3 hPa | 4.06 mm | - | - | - |
* Rain latest hour (hover to see other rain measurements)
** Current wind speed in m/s (hover to see current wind gust speed)